{"data":{"norad_id":69075,"intl_designator":"2026-104C","name":"QIANFAN-129","alt_names":[],"object_type":"PAYLOAD","status":"ACTIVE","operator":null,"country":"PRC","launch_date":"2026-05-12","launch_site_code":"TAISC","launch_vehicle":null,"mission":null,"orbit_class":"UNKNOWN","rcs_meters":null,"size_class":null,"mass_kg":null,"dimensions":null,"purposes":[],"wikipedia_slug":null,"has_3d_model":false,"image_url":null,"decayed_at":null,"tle_current":{"epoch":"2026-09-20T04:40:29.993376Z","epoch_age_seconds":49648,"freshness":"FRESH","line1":"1 69075U 26104C   26263.19479159  .00000069  00000+0  88706-4 0  9991","line2":"2 69075  88.9903 331.7434 0002342 107.8570 252.2837 13.51023673 18009","mean_motion":13.51023673,"eccentricity":0.0002342,"inclination_deg":88.9903,"raan_deg":331.7434,"arg_perigee_deg":107.857,"mean_anomaly_deg":252.2837,"bstar":8.8706e-5,"rev_number":1800,"period_min":106.58584514677,"perigee_km":1066.7505949347,"apogee_km":1070.2385971743,"semimajor_km":7446.6315960545,"source":"CELESTRAK","updated_at":"2026-09-20T09:00:24.642164Z"}}}